SL-12 R/B(AUX MOTOR), 15338

Orbit data source: Space-Track

SL-12 R/B(AUX MOTOR), 15338 is space debris in LEO originally from a launch on Fri, 28 Sep 1984 UTC launched from the Tyuratam Missile And Space Complex (TTMTR). Debris objects in space refer to the collection of defunct objects orbiting the Earth. Examples of debris include non-operational satellites, rocket bodies, and fragments generated from explosions, collisions, or faulty payload assembly.

Loading next visibility...
Identifier
15338, 1984-106F
Orbit
LEO
Country
Flag of CISCIS
Related business
Manufacturer
NPO Energiya
Mission
Spacecraft
Bus & Motor
SOZ, Unknown motor
Mass
110 kg wet, 56 kg dry
Launch date (UTC)
1984-09-28 (41 years ago)
Launch vehicle
Unknown
Launch site
Tyuratam Missile And Space Complex (TTMTR)
Object type
Payload
Rocket body
Debris
Shape & HBR
Unknown
Radar Cross Section
Medium (>0.1 m² and <1 m²)

Expand to show TLE details & history
Last TLE update: 1 day ago

TLE from 1 day ago
0 SL-12 R/B(AUX MOTOR)
1 15338U 84106F   25306.46099794  .00000123  00000-0  98907-4 0  9996
2 15338  66.5687 133.0270 0006728 141.2702 218.8873 14.19200434126055
Epoch: 2025-11-02T11:03Z
TLE epoch observation values (Epoch: 2025-11-02T11:03:50.222Z)
Latitude
0.00001°
Longitude
-74.90865°
Altitude
833.92 km
Speed
7.434 km/s
True Right ascension
08h 52m 06s
True Declination
0° 00' 00"
Sunlit
Object was in daylight at epoch
Visualization orbit readout
Latitude
Unknown
Longitude
Unknown
Altitude
Unknown
Speed
Unknown
Apparent Right ascension
Unknown
Apparent Declination
Unknown
Sunlit
N/A
Visualization observer readout
Local Sidereal Time
17:14:15
Azimuth
Unknown
Elevation
Unknown
Doppler factor
Unknown
Orbital elements
Apogee altitude
831.304 km
Perigee altitude
821.609 km
Semi-major axis
7,204.594 km
Eccentricity
0.00067
Inclination
66.5687°
RAAN
133.027°
Arg. of periapsis
141.2702°
True anomaly
218.83893°
Mean anomaly
218.8873°
Eccentric anomaly
218.86311°
Mean motion
3.54919 °/min
Orbital period
101.43 mins
BSTAR
0.000098907
Loading maneuver chart data...
Computing Atmospheric mass density...
Loading historical data...
Loading historical data...
Loading historical data...
Loading historical data...
Loading historical data...
Loading historical data...
Loading historical data...

Documentation

Showing up to 5 results
|